Hourly Data Report for October 03, 2017

All times are specified in Local Standard Time (LST). Add 1 hour to adjust for Daylight Saving Time where and when it is observed.

LONDON CS
ONTARIO

43°02'00.000" N
81°09'00.000" W
278.00 m
6144478
71622
WSN

Download Data

Hourly Data (October 2017)
Hourly Data Report for October 3, 2017
Temp Definition
°C
Dew Point Temp Definition
°C
Rel Hum Definition
%
Wind Dir Definition
10's deg

Wind Spd Definition
km/h
Visibility Definition
km
Stn Press Definition
kPa
Hmdx Definition


Wind Chill Definition


Weather Definition


TIME
00:00 10.3 8.6 89 LegendMM LegendMM   99.54     LegendNANA
01:00 10.5 8.6 88 LegendMM LegendMM   99.54     LegendNANA
02:00 9.9 8.2 90 LegendMM LegendMM   99.55     LegendNANA
03:00 8.3 6.5 89 LegendMM LegendMM   99.54     LegendNANA
04:00 9.1 8.2 94 LegendMM LegendMM   99.58     LegendNANA
05:00 8.3 7.3 94 LegendMM LegendMM   99.64     LegendNANA
06:00 8.5 7.6 94 LegendMM LegendMM   99.70     LegendNANA
07:00 9.5 8.9 96 LegendMM LegendMM   99.74     LegendNANA
08:00 13.7 11.8 88 LegendMM LegendMM   99.73     LegendNANA
09:00 17.9 13.6 76 LegendMM LegendMM   99.79     LegendNANA
10:00 20.5 12.6 60 LegendMM LegendMM   99.74     LegendNANA
11:00 22.7 11.4 49 LegendMM LegendMM   99.72 25   LegendNANA
12:00 23.9 9.4 40 LegendMM LegendMM   99.70 25   LegendNANA
13:00 24.8 8.6 36 LegendMM LegendMM   99.62 25   LegendNANA
14:00 24.8 8.5 35 LegendMM LegendMM   99.58 25   LegendNANA
15:00 24.7 8.1 35 LegendMM LegendMM   99.53 25   LegendNANA
16:00 23.8 8.4 37 LegendMM LegendMM   99.51     LegendNANA
17:00 22.6 8.5 41 LegendMM LegendMM   99.49     LegendNANA
18:00 20.7 9.2 48 LegendMM LegendMM   99.49     LegendNANA
19:00 18.6 8.9 53 LegendMM LegendMM   99.49     LegendNANA
20:00 18.0 8.5 54 LegendMM LegendMM   99.50     LegendNANA
21:00 18.0 10.2 60 LegendMM LegendMM   99.46     LegendNANA
22:00 18.5 11.7 65 LegendMM LegendMM   99.47     LegendNANA
23:00 20.2 12.9 63 LegendMM LegendMM   99.43     LegendNANA

Notes on Data Quality.

Legend

  • E = Estimated
  • M = Missing
  • NA = Not Available
  • ‡ = Partner data that is not subject to review by the National Climate Archives
Date modified: